Location: Bun Machan
(52.1403°N, 7.3744°W)
Time: 17:43:45
(UTC+00:00)

Gbstr 26 Del rocket - Pass Details

Date: 14 July 2020
Orbit: 492 x 1264 km, 51.8° (Epoch: 13 August)

Event Time Altitude Azimuth Distance (km) Brightness Sun altitude
Rises 03:21:44 0° 284° (WNW) 2,695 6.1 -7.8°
Reaches altitude 10° 03:23:57 10° 275° (W) 1,870 5.2 -7.6°
Maximum altitude 03:27:44 33° 211° (SSW) 1,070 3.8 -7.2°
Drops below altitude 10° 03:32:11 10° 148° (SSE) 2,209 5.7 -6.8°
Sets 03:35:02 0° 139° (SE) 3,271 6.7 -6.5°
